Home   Weather   Santa Cruz de Tenerife   Past weeks

Flag for Spain Past Weather in Santa Cruz de Tenerife, Canary Islands, Spain — Yesterday and Last 2 Weeks

Now
72 °F

Passing clouds.


Feels Like: 74 °F
Forecast: 73 / 83 °F
Wind: 17 mph from Northwest

Location: Tenerife / Los Rodeos

Current Time: Sep 28, 2016 at 2:48:13 PM

Latest Report: Sep 28, 2016 at 2:00 PM


Visibility: N/A

Pressure: 30.12 "Hg

Humidity: 73%

Dew Point: 63 °F

Location of Santa Cruz de TenerifeLocation

Past Weather in Santa Cruz de Tenerife — Graph

°F

Santa Cruz de Tenerife Temperature Yesterday

Maximum temperature yesterday: 73 °F (at 1:00 PM)
Minimum temperature yesterday: 61 °F (at 5:30 AM)
Average temperature yesterday: 66 °F

High & Low Weather Summary for the Past Weeks

 TemperatureHumidityPressure
High77 °F (Sep 13, 3:30 PM)100% (Sep 14, 5:30 AM)30.30 "Hg (Sep 14, 5:30 AM)
Low59 °F (Sep 20, 1:00 AM)50% (Sep 21, 3:30 PM)30.09 "Hg (Sep 20, 5:00 PM)
Average66 °F81%30.19 "Hg
* Reported Sep 13 1:00 PM — Sep 28 1:30 PM, Santa Cruz de Tenerife, Weather by CustomWeather, © 2016

Note: Actual official high and low records may vary slightly from our data, if they occured in-between our weather recording intervals... More about our weather records

Advertising

Santa Cruz de Tenerife Weather History for the Previous 24 Hours

Scroll right to see more
 ConditionsComfort  
Time TempWeatherWind HumidityBarometerVisibility
1:30 PM
Wed, Sep 28
72 °FPassing clouds.17 mph73%30.12 "HgN/A
1:00 PM72 °FPassing clouds.16 mph73%30.12 "HgN/A
12:30 PM72 °FScattered clouds.18 mph78%30.12 "HgN/A
12:00 PM70 °FFog.18 mph78%30.12 "HgN/A
11:30 AM68 °FFog.17 mph88%30.15 "HgN/A
11:00 AM68 °FMild.15 mph88%30.15 "HgN/A
10:30 AM66 °FBroken clouds.16 mph94%30.15 "Hg4 mi
10:00 AM66 °FBroken clouds.14 mph94%30.12 "Hg5 mi
9:30 AM66 °FBroken clouds.13 mph88%30.12 "Hg6 mi
9:00 AM64 °FBroken clouds.13 mph100%30.12 "Hg6 mi
8:30 AM64 °FPartly sunny.13 mph94%30.12 "Hg5 mi
8:00 AM63 °FScattered clouds.15 mph100%30.12 "HgN/A
7:48 AM63 °FFog.16 mph94%30.12 "Hg6 mi
7:30 AM64 °FPassing clouds.15 mph94%30.12 "HgN/A
7:00 AM63 °FFog.16 mph100%30.09 "HgN/A
6:30 AM63 °FFog.16 mph94%30.09 "HgN/A
6:00 AM63 °FPassing clouds.15 mph94%30.09 "HgN/A
5:30 AM63 °FPassing clouds.13 mph88%30.09 "HgN/A
5:00 AM63 °FMild.10 mph88%30.09 "HgN/A
4:30 AM63 °FMild.10 mph77%30.12 "HgN/A
4:00 AM64 °FMild.9 mph68%30.12 "HgN/A
3:30 AM63 °FMild.10 mph83%30.12 "HgN/A
3:00 AM61 °FCool.5 mph68%30.12 "HgN/A
2:30 AM66 °FMild.1 mph60%30.15 "HgN/A
2:00 AM64 °FMild.1 mph64%30.15 "HgN/A
1:30 AM63 °FMild.No wind68%30.15 "HgN/A
1:00 AM64 °FMild.1 mph68%30.15 "HgN/A
12:30 AM63 °FMild.3 mph77%30.15 "HgN/A
12:00 AM61 °FCool.2 mph88%30.15 "HgN/A
11:30 PM
Tue, Sep 27
63 °FMild.5 mph88%30.18 "HgN/A
11:00 PM63 °FPassing clouds.8 mph94%30.18 "Hg6 mi
10:30 PM63 °FPassing clouds.9 mph88%30.18 "Hg6 mi
10:00 PM63 °FPassing clouds.10 mph94%30.15 "Hg6 mi
9:30 PM63 °FPassing clouds.9 mph94%30.15 "Hg6 mi
9:00 PM63 °FPassing clouds.9 mph94%30.15 "Hg5 mi
8:30 PM64 °FPassing clouds.10 mph88%30.15 "Hg5 mi
8:00 PM64 °FPassing clouds.10 mph88%30.15 "HgN/A
7:30 PM66 °FPassing clouds.9 mph83%30.12 "HgN/A
6:30 PM70 °FPassing clouds.12 mph73%30.12 "HgN/A
6:00 PM72 °FPassing clouds.10 mph69%30.12 "HgN/A
5:30 PM72 °FPassing clouds.12 mph69%30.12 "HgN/A
5:00 PM72 °FPassing clouds.12 mph69%30.12 "HgN/A
4:30 PM72 °FPassing clouds.12 mph69%30.12 "HgN/A
4:00 PM72 °FPassing clouds.14 mph69%30.12 "HgN/A
3:30 PM72 °FPassing clouds.14 mph69%30.15 "HgN/A
3:00 PM72 °FPassing clouds.14 mph69%30.15 "HgN/A
2:30 PM73 °FPassing clouds.10 mph69%30.15 "HgN/A
2:00 PM73 °FPassing clouds.12 mph65%30.18 "HgN/A
Weather by CustomWeather, © 2016

See weather overviewHow to use our weather pages